contact:dominique.lefevre@mio.osupytheas.fr, maurice.libes@osupytheas.fr, didier.mallarino@osupytheas.fr
Project:EMSO http://www.emso-fr.org/EMSO-France
Depth: 2436.0 m
Title:EMSO Ligure Ouest : Data MII capteur AQUADOPP
Date,Latitude,Longitude,X_East,Y_North,Z_Up,Amplitude_X,Amplitude_Y,Amplitude_Z,Batterie,SoundSpeed,Heading,Pitch,Roll,Pressure,TIS,Speed,Direction
, degrees North, degrees East, m.s-1, m.s-1,m.s-1, 1, 1, 1, Volt, m.s-1, degree, degree, degree, dbar, degree_C, m.s-1, degree
2020-12-14T00:04:03,42.805,6.029,-0.023,-0.023,-0.01,105.0,106.0,102.0,13.4,1505.2,323.2,-0.7,1.8,2470.356,13.3,0.032,225.0
2020-12-14T00:07:03,42.805,6.029,-0.03,-0.028,-0.027,105.0,106.0,101.0,13.4,1505.3,327.4,-0.7,1.8,2470.34,13.31,0.041,227.0
2020-12-14T00:10:03,42.805,6.029,-0.025,-0.027,-0.006,105.0,105.0,102.0,13.4,1505.3,324.8,-0.7,1.8,2470.319,13.31,0.036,222.8
2020-12-14T00:13:03,42.805,6.029,-0.039,-0.035,-0.031,106.0,105.0,102.0,13.4,1505.3,328.1,-0.7,1.8,2470.341,13.32,0.052,228.1
2020-12-14T00:16:03,42.805,6.029,-0.038,-0.022,-0.003,105.0,106.0,102.0,13.4,1505.3,325.5,-0.7,1.9,2470.348,13.32,0.043,239.9
2020-12-14T00:19:03,42.805,6.029,-0.051,-0.002,0.037,106.0,107.0,102.0,13.3,1505.3,327.7,-0.7,1.8,2470.268,13.32,0.051,267.8
2020-12-14T00:22:03,42.805,6.029,-0.038,-0.023,-0.011,104.0,106.0,103.0,13.4,1505.3,324.1,-0.7,1.9,2470.304,13.32,0.044,238.8
2020-12-14T00:25:03,42.805,6.029,-0.031,-0.032,-0.013,106.0,106.0,102.0,13.3,1505.3,325.9,-0.7,1.9,2470.334,13.32,0.044,224.1
2020-12-14T00:28:03,42.805,6.029,-0.051,0.0,0.003,106.0,107.0,102.0,13.4,1505.3,324.7,-0.7,1.8,2470.308,13.32,0.051,270.0
2020-12-14T00:31:03,42.805,6.029,-0.026,0.0,-0.007,107.0,106.0,102.0,13.4,1505.3,327.2,-0.7,1.8,2470.329,13.32,0.026,270.0
2020-12-14T00:34:03,42.805,6.029,-0.049,-0.008,-0.013,104.0,106.0,102.0,13.4,1505.3,323.8,-0.7,1.8,2470.331,13.32,0.049,260.7
2020-12-14T00:37:03,42.805,6.029,-0.042,-0.006,-0.002,105.0,106.0,102.0,13.4,1505.3,325.0,-0.7,1.8,2470.306,13.32,0.042,261.9
2020-12-14T00:40:03,42.805,6.029,-0.03,-0.03,-0.043,105.0,108.0,102.0,13.4,1505.3,324.7,-0.6,1.8,2470.333,13.32,0.042,225.0
2020-12-14T00:43:03,42.805,6.029,-0.019,0.0,-0.013,105.0,106.0,102.0,13.3,1505.3,327.9,-0.7,1.8,2470.317,13.32,0.019,270.0
2020-12-14T00:46:03,42.805,6.029,-0.024,-0.004,0.0,106.0,107.0,102.0,13.4,1505.3,327.2,-0.7,1.8,2470.309,13.32,0.024,260.5
2020-12-14T00:49:03,42.805,6.029,-0.048,0.007,-0.023,106.0,107.0,102.0,13.3,1505.3,327.1,-0.7,1.8,2470.325,13.32,0.048,278.3
2020-12-14T00:52:03,42.805,6.029,-0.026,-0.019,0.001,106.0,105.0,102.0,13.4,1505.3,327.4,-0.7,1.8,2470.283,13.32,0.032,233.8
2020-12-14T00:55:03,42.805,6.029,-0.034,-0.019,-0.034,105.0,106.0,103.0,13.4,1505.3,324.0,-0.7,1.8,2470.289,13.32,0.038,240.8
2020-12-14T00:58:03,42.805,6.029,-0.051,-0.008,-0.008,105.0,105.0,104.0,13.4,1505.3,324.7,-0.7,1.8,2470.32,13.32,0.051,261.1
2020-12-14T01:04:03,42.805,6.029,-0.049,-0.009,0.005,106.0,108.0,102.0,13.3,1505.2,323.9,-0.8,1.8,2470.315,13.3,0.049,259.6
2020-12-14T01:07:03,42.805,6.029,-0.066,-0.022,-0.029,106.0,107.0,102.0,13.4,1505.3,323.0,-0.7,1.8,2470.369,13.31,0.069,251.6
2020-12-14T01:10:03,42.805,6.029,-0.012,-0.033,0.014,106.0,105.0,102.0,13.3,1505.3,322.7,-0.7,1.8,2470.344,13.31,0.035,200.0
2020-12-14T01:13:03,42.805,6.029,-0.022,-0.001,0.0,107.0,106.0,101.0,13.4,1505.3,327.3,-0.7,1.8,2470.325,13.32,0.022,267.4
2020-12-14T01:16:03,42.805,6.029,-0.029,-0.015,-0.035,106.0,107.0,102.0,13.4,1505.3,325.1,-0.7,1.8,2470.378,13.32,0.032,242.6
2020-12-14T01:19:03,42.805,6.029,-0.018,-0.009,-0.004,105.0,108.0,101.0,13.3,1505.3,325.6,-0.7,1.8,2470.351,13.32,0.02,243.4
2020-12-14T01:22:03,42.805,6.029,-0.039,-0.009,-0.011,105.0,106.0,102.0,13.4,1505.3,323.9,-0.7,1.8,2470.316,13.32,0.04,257.0
2020-12-14T01:25:03,42.805,6.029,-0.056,-0.017,-0.027,105.0,107.0,101.0,13.4,1505.3,327.5,-0.7,1.8,2470.34,13.32,0.058,253.1
2020-12-14T01:28:03,42.805,6.029,-0.068,-0.01,0.003,106.0,105.0,101.0,13.4,1505.3,323.0,-0.7,1.8,2470.331,13.32,0.068,261.6
2020-12-14T01:31:03,42.805,6.029,-0.053,-0.026,-0.04,106.0,106.0,101.0,13.4,1505.3,327.0,-0.7,1.8,2470.333,13.32,0.059,243.9
2020-12-14T01:34:03,42.805,6.029,-0.046,-0.015,-0.01,105.0,108.0,103.0,13.3,1505.3,327.6,-0.7,1.8,2470.361,13.32,0.048,251.9
2020-12-14T01:37:03,42.805,6.029,-0.04,-0.012,-0.032,106.0,106.0,102.0,13.4,1505.3,325.4,-0.7,1.8,2470.341,13.32,0.041,253.3
2020-12-14T01:40:03,42.805,6.029,-0.04,-0.017,-0.029,106.0,106.0,102.0,13.4,1505.3,322.8,-0.7,1.8,2470.371,13.32,0.043,247.0
2020-12-14T01:43:03,42.805,6.029,-0.014,-0.024,-0.004,106.0,105.0,102.0,13.4,1505.3,327.9,-0.7,1.8,2470.331,13.32,0.027,210.3
2020-12-14T01:46:03,42.805,6.029,-0.045,-0.024,-0.002,107.0,107.0,102.0,13.4,1505.3,324.2,-0.7,1.8,2470.323,13.32,0.051,241.9
2020-12-14T01:49:03,42.805,6.029,-0.02,-0.005,0.015,105.0,106.0,102.0,13.4,1505.3,322.6,-0.7,1.8,2470.373,13.32,0.02,256.0
2020-12-14T01:52:03,42.805,6.029,-0.05,0.0,0.001,106.0,107.0,102.0,13.3,1505.3,323.9,-0.7,1.9,2470.316,13.32,0.05,270.0
2020-12-14T01:55:03,42.805,6.029,-0.045,-0.007,-0.03,105.0,107.0,102.0,13.4,1505.3,326.8,-0.7,1.8,2470.36,13.32,0.045,261.2
2020-12-14T01:58:03,42.805,6.029,-0.044,0.016,-0.011,105.0,107.0,102.0,13.3,1505.3,327.6,-0.7,1.8,2470.353,13.32,0.046,290.0
2020-12-14T02:04:03,42.805,6.029,-0.047,-0.01,0.002,106.0,109.0,103.0,13.3,1505.2,326.1,-0.7,1.8,2470.345,13.3,0.048,258.0
2020-12-14T02:07:03,42.805,6.029,-0.031,-0.009,-0.038,105.0,107.0,103.0,13.3,1505.3,324.7,-0.7,1.8,2470.405,13.31,0.032,253.8
2020-12-14T02:10:03,42.805,6.029,-0.037,-0.016,-0.015,105.0,106.0,102.0,13.4,1505.3,327.0,-0.6,1.8,2470.367,13.32,0.04,246.6
2020-12-14T02:13:03,42.805,6.029,-0.052,-0.002,-0.007,105.0,106.0,102.0,13.4,1505.3,325.8,-0.7,1.8,2470.371,13.32,0.052,267.8
2020-12-14T02:16:03,42.805,6.029,-0.036,-0.01,0.001,105.0,107.0,102.0,13.3,1505.3,325.9,-0.7,1.8,2470.362,13.32,0.037,254.5
2020-12-14T02:19:03,42.805,6.029,-0.039,-0.008,-0.034,106.0,107.0,103.0,13.4,1505.3,326.0,-0.7,1.8,2470.383,13.32,0.039,258.4
2020-12-14T02:22:03,42.805,6.029,-0.029,0.0,-0.023,105.0,107.0,103.0,13.4,1505.3,325.8,-0.7,1.9,2470.348,13.32,0.028,270.0
2020-12-14T02:25:03,42.805,6.029,-0.059,-0.019,-0.03,105.0,107.0,102.0,13.4,1505.3,324.2,-0.7,1.9,2470.386,13.32,0.061,252.2
2020-12-14T02:28:03,42.805,6.029,-0.054,-0.007,-0.016,107.0,107.0,103.0,13.4,1505.3,327.4,-0.7,1.8,2470.382,13.32,0.054,262.6
2020-12-14T02:31:03,42.805,6.029,-0.035,-0.016,-0.015,104.0,106.0,104.0,13.3,1505.3,323.9,-0.7,1.8,2470.361,13.32,0.038,245.4
2020-12-14T02:34:03,42.805,6.029,-0.038,0.025,-0.016,106.0,107.0,103.0,13.3,1505.3,326.5,-0.7,1.8,2470.402,13.33,0.045,303.3
2020-12-14T02:37:03,42.805,6.029,-0.031,-0.013,-0.024,105.0,106.0,103.0,13.4,1505.3,325.8,-0.7,1.8,2470.369,13.33,0.033,247.3
2020-12-14T02:40:03,42.805,6.029,-0.06,0.005,0.001,106.0,107.0,103.0,13.4,1505.3,324.2,-0.7,1.8,2470.346,13.32,0.06,274.8
2020-12-14T02:43:03,42.805,6.029,-0.023,0.014,-0.011,106.0,107.0,104.0,13.3,1505.3,326.0,-0.7,1.8,2470.384,13.33,0.026,301.3
2020-12-14T02:46:03,42.805,6.029,-0.017,0.0,-0.003,106.0,107.0,103.0,13.3,1505.3,325.9,-0.7,1.8,2470.39,13.32,0.017,270.0
2020-12-14T02:49:03,42.805,6.029,-0.023,0.008,0.01,104.0,107.0,103.0,13.3,1505.3,324.3,-0.7,1.8,2470.36,13.32,0.024,289.2
2020-12-14T02:52:03,42.805,6.029,-0.06,0.01,-0.015,106.0,107.0,103.0,13.4,1505.3,325.4,-0.7,1.8,2470.405,13.32,0.06,279.5
2020-12-14T02:55:03,42.805,6.029,-0.019,-0.004,-0.053,107.0,108.0,102.0,13.4,1505.3,327.1,-0.7,1.8,2470.391,13.33,0.019,258.1
2020-12-14T02:58:03,42.805,6.029,-0.02,0.005,-0.005,105.0,107.0,102.0,13.4,1505.3,323.3,-0.7,1.8,2470.411,13.33,0.02,284.0
2020-12-14T03:04:03,42.805,6.029,-0.022,0.008,0.037,105.0,109.0,102.0,13.3,1505.3,324.3,-0.7,1.8,2470.442,13.31,0.023,290.0
2020-12-14T03:07:03,42.805,6.029,-0.024,0.006,-0.002,106.0,108.0,102.0,13.4,1505.3,326.3,-0.7,1.8,2470.429,13.31,0.024,284.0
2020-12-14T03:10:03,42.805,6.029,0.0,0.007,0.007,105.0,108.0,103.0,13.4,1505.3,326.3,-0.7,1.8,2470.396,13.32,0.007,0.0
2020-12-14T03:13:03,42.805,6.029,-0.042,0.013,-0.054,104.0,107.0,103.0,13.4,1505.3,326.8,-0.7,1.8,2470.428,13.32,0.043,287.2
2020-12-14T03:16:03,42.805,6.029,-0.04,0.006,-0.015,106.0,108.0,102.0,13.4,1505.3,326.4,-0.7,1.8,2470.401,13.32,0.04,278.5
2020-12-14T03:19:03,42.805,6.029,-0.036,0.016,-0.027,105.0,106.0,103.0,13.3,1505.3,326.3,-0.7,1.8,2470.414,13.33,0.039,294.0
2020-12-14T03:22:03,42.805,6.029,-0.035,-0.004,-0.043,105.0,107.0,103.0,13.3,1505.3,326.6,-0.7,1.8,2470.435,13.33,0.035,263.5
2020-12-14T03:25:03,42.805,6.029,-0.028,-0.007,0.004,105.0,107.0,102.0,13.3,1505.3,325.5,-0.7,1.8,2470.449,13.33,0.028,256.0
2020-12-14T03:28:03,42.805,6.029,-0.035,0.002,0.018,105.0,108.0,102.0,13.4,1505.3,323.0,-0.7,1.8,2470.467,13.33,0.035,273.3
2020-12-14T03:31:03,42.805,6.029,-0.016,-0.021,-0.019,106.0,106.0,103.0,13.3,1505.3,327.5,-0.7,1.8,2470.45,13.33,0.026,217.3
2020-12-14T03:34:03,42.805,6.029,-0.025,0.005,-0.024,106.0,106.0,102.0,13.4,1505.3,324.9,-0.7,1.8,2470.417,13.33,0.025,281.3
2020-12-14T03:37:03,42.805,6.029,-0.029,-0.01,-0.022,106.0,109.0,102.0,13.4,1505.3,323.2,-0.7,1.8,2470.455,13.33,0.03,251.0
2020-12-14T03:40:03,42.805,6.029,-0.012,0.002,0.0,105.0,109.0,104.0,13.4,1505.3,323.8,-0.8,1.8,2470.407,13.33,0.012,279.5
2020-12-14T03:43:03,42.805,6.029,-0.029,0.023,-0.008,105.0,107.0,102.0,13.3,1505.3,326.2,-0.7,1.9,2470.478,13.33,0.037,308.4
2020-12-14T03:46:03,42.805,6.029,-0.011,-0.016,-0.048,106.0,108.0,104.0,13.3,1505.3,325.7,-0.7,1.9,2470.449,13.33,0.019,214.5
2020-12-14T03:49:03,42.805,6.029,-0.03,-0.004,0.0,106.0,109.0,101.0,13.4,1505.3,324.8,-0.7,1.8,2470.457,13.33,0.03,262.4
2020-12-14T03:52:03,42.805,6.029,-0.028,0.005,-0.007,105.0,109.0,102.0,13.4,1505.3,327.7,-0.7,1.8,2470.438,13.33,0.028,280.1
2020-12-14T03:55:03,42.805,6.029,-0.029,-0.025,-0.042,105.0,107.0,102.0,13.4,1505.3,326.3,-0.7,1.8,2470.467,13.33,0.038,229.2
2020-12-14T03:58:03,42.805,6.029,-0.006,-0.018,-0.04,105.0,108.0,103.0,13.3,1505.3,325.5,-0.7,1.8,2470.477,13.33,0.018,198.4
2020-12-14T04:01:03,42.805,6.029,-0.017,0.007,-0.021,105.0,108.0,102.0,13.3,1505.3,323.3,-0.7,1.8,2470.502,13.33,0.018,292.4
2020-12-14T04:04:03,42.805,6.029,-0.005,-0.002,-0.015,106.0,108.0,102.0,13.4,1505.3,324.6,-0.7,1.8,2470.475,13.33,0.005,248.2
2020-12-14T04:07:03,42.805,6.029,-0.012,0.005,-0.002,106.0,106.0,101.0,13.4,1505.3,327.9,-0.6,1.8,2470.465,13.33,0.013,292.6
2020-12-14T04:10:03,42.805,6.029,0.0,-0.005,0.016,106.0,107.0,102.0,13.4,1505.3,326.3,-0.7,1.8,2470.476,13.33,0.005,180.0
2020-12-14T04:13:03,42.805,6.029,0.028,-0.015,0.0,104.0,108.0,102.0,13.3,1505.3,324.1,-0.7,1.8,2470.481,13.33,0.031,118.2
2020-12-14T04:16:03,42.805,6.029,0.01,-0.012,0.032,105.0,109.0,101.0,13.4,1505.3,324.8,-0.7,1.8,2470.495,13.33,0.015,140.2
2020-12-14T04:19:03,42.805,6.029,0.008,0.003,0.027,107.0,108.0,102.0,13.4,1505.3,324.4,-0.7,1.9,2470.498,13.33,0.008,69.4
2020-12-14T04:22:03,42.805,6.029,-0.001,0.002,-0.007,106.0,109.0,103.0,13.4,1505.3,324.5,-0.7,1.8,2470.459,13.33,0.002,333.4
2020-12-14T04:25:03,42.805,6.029,-0.02,-0.008,-0.004,105.0,107.0,103.0,13.4,1505.3,327.8,-0.7,1.9,2470.485,13.33,0.021,248.2
2020-12-14T04:28:03,42.805,6.029,0.002,0.0,-0.02,105.0,107.0,101.0,13.4,1505.3,322.9,-0.7,1.8,2470.497,13.33,0.002,90.0
2020-12-14T04:31:03,42.805,6.029,-0.024,0.001,-0.006,105.0,107.0,101.0,13.3,1505.3,323.2,-0.7,1.8,2470.482,13.33,0.024,272.4
2020-12-14T04:34:03,42.805,6.029,-0.014,0.003,-0.016,105.0,109.0,102.0,13.4,1505.3,323.0,-0.7,1.8,2470.498,13.33,0.014,282.1
2020-12-14T04:37:03,42.805,6.029,-0.048,-0.008,-0.024,105.0,109.0,102.0,13.4,1505.3,323.2,-0.7,1.8,2470.534,13.33,0.048,260.5
2020-12-14T04:40:03,42.805,6.029,-0.017,0.001,-0.008,105.0,108.0,102.0,13.3,1505.3,325.7,-0.7,1.8,2470.496,13.33,0.017,273.4
2020-12-14T04:43:03,42.805,6.029,0.03,0.012,0.047,105.0,109.0,101.0,13.4,1505.3,326.9,-0.7,1.8,2470.534,13.33,0.032,68.2
2020-12-14T04:46:03,42.805,6.029,-0.039,-0.024,-0.03,105.0,108.0,101.0,13.4,1505.3,322.9,-0.7,1.8,2470.524,13.33,0.045,238.4
2020-12-14T04:49:03,42.805,6.029,0.0,0.006,-0.002,105.0,109.0,102.0,13.4,1505.3,323.3,-0.7,1.9,2470.558,13.33,0.006,0.0
2020-12-14T04:52:03,42.805,6.029,0.033,-0.012,0.037,105.0,108.0,102.0,13.3,1505.3,326.1,-0.7,1.9,2470.565,13.33,0.035,110.0
2020-12-14T04:55:03,42.805,6.029,0.026,-0.003,0.043,106.0,108.0,102.0,13.3,1505.3,326.2,-0.7,1.8,2470.532,13.33,0.026,96.6
2020-12-14T04:58:03,42.805,6.029,0.035,0.007,0.075,106.0,107.0,102.0,13.3,1505.3,325.9,-0.7,1.8,2470.509,13.33,0.035,78.7
2020-12-14T05:04:03,42.805,6.029,-0.008,-0.003,-0.029,104.0,107.0,102.0,13.4,1505.3,326.6,-0.8,1.8,2470.571,13.31,0.008,249.4
2020-12-14T05:07:03,42.805,6.029,-0.014,-0.004,-0.012,105.0,107.0,101.0,13.4,1505.3,323.8,-0.7,1.8,2470.553,13.32,0.014,254.1
2020-12-14T05:10:03,42.805,6.029,-0.008,-0.003,-0.015,104.0,109.0,103.0,13.3,1505.3,323.8,-0.7,1.8,2470.55,13.32,0.008,249.4
2020-12-14T05:13:03,42.805,6.029,-0.046,-0.014,-0.02,105.0,109.0,102.0,13.4,1505.3,325.5,-0.7,1.9,2470.57,13.33,0.048,253.1
2020-12-14T05:16:03,42.805,6.029,-0.027,-0.005,-0.035,106.0,108.0,102.0,13.4,1505.3,325.3,-0.7,1.8,2470.587,13.33,0.027,259.5
2020-12-14T05:19:03,42.805,6.029,-0.011,-0.031,0.0,105.0,109.0,102.0,13.4,1505.3,324.4,-0.7,1.8,2470.551,13.33,0.032,199.5
2020-12-14T05:22:03,42.805,6.029,-0.004,0.001,0.027,105.0,107.0,102.0,13.4,1505.3,326.2,-0.7,1.8,2470.556,13.33,0.004,284.0
2020-12-14T05:25:03,42.805,6.029,-0.023,-0.01,0.001,105.0,107.0,103.0,13.4,1505.3,324.4,-0.7,1.9,2470.584,13.33,0.025,246.5
2020-12-14T05:28:03,42.805,6.029,-0.007,0.003,-0.024,106.0,108.0,102.0,13.4,1505.3,325.6,-0.7,1.8,2470.586,13.33,0.007,293.2
2020-12-14T05:31:03,42.805,6.029,-0.031,-0.021,-0.014,106.0,107.0,103.0,13.4,1505.3,324.6,-0.7,1.9,2470.581,13.33,0.037,235.9
2020-12-14T05:34:03,42.805,6.029,-0.023,-0.02,-0.004,106.0,108.0,103.0,13.3,1505.3,326.1,-0.7,1.8,2470.581,13.33,0.03,229.0
2020-12-14T05:37:03,42.805,6.029,-0.029,-0.022,-0.013,106.0,108.0,103.0,13.4,1505.3,326.0,-0.7,1.8,2470.553,13.33,0.036,232.8
2020-12-14T05:40:03,42.805,6.029,-0.021,-0.005,-0.034,106.0,107.0,103.0,13.3,1505.3,324.6,-0.7,1.8,2470.538,13.33,0.021,256.6
2020-12-14T05:43:03,42.805,6.029,0.009,-0.01,0.012,106.0,107.0,102.0,13.4,1505.3,323.9,-0.7,1.8,2470.548,13.33,0.013,138.0
2020-12-14T05:46:03,42.805,6.029,-0.034,-0.004,-0.038,107.0,109.0,103.0,13.4,1505.3,327.8,-0.7,1.8,2470.571,13.33,0.034,263.3
2020-12-14T05:49:03,42.805,6.029,-0.025,-0.018,-0.005,107.0,108.0,102.0,13.3,1505.3,322.8,-0.7,1.8,2470.58,13.33,0.03,234.2
2020-12-14T05:52:03,42.805,6.029,-0.037,0.001,0.015,107.0,108.0,102.0,13.3,1505.3,324.6,-0.7,1.8,2470.578,13.33,0.037,271.5
2020-12-14T05:55:03,42.805,6.029,-0.011,-0.001,0.012,106.0,108.0,103.0,13.4,1505.3,323.0,-0.7,1.9,2470.582,13.33,0.011,264.8
2020-12-14T05:58:03,42.805,6.029,-0.032,-0.024,0.018,106.0,108.0,103.0,13.4,1505.3,324.3,-0.8,1.8,2470.588,13.33,0.04,233.1
2020-12-14T06:04:03,42.805,6.029,0.0,-0.019,-0.012,106.0,108.0,103.0,13.4,1505.3,326.8,-0.8,1.8,2470.612,13.31,0.019,180.0
2020-12-14T06:07:03,42.805,6.029,-0.018,-0.005,-0.008,105.0,110.0,102.0,13.4,1505.3,323.2,-0.7,1.8,2470.617,13.31,0.018,254.5
2020-12-14T06:10:03,42.805,6.029,-0.008,-0.008,0.017,107.0,108.0,102.0,13.3,1505.3,326.5,-0.7,1.8,2470.649,13.32,0.011,225.0
2020-12-14T06:13:03,42.805,6.029,-0.026,-0.007,-0.02,104.0,109.0,103.0,13.4,1505.3,324.5,-0.7,1.8,2470.627,13.32,0.026,254.9
2020-12-14T06:16:03,42.805,6.029,-0.017,0.003,0.011,106.0,110.0,103.0,13.4,1505.3,327.9,-0.7,1.8,2470.597,13.32,0.017,280.0
2020-12-14T06:19:03,42.805,6.029,-0.005,0.002,-0.002,106.0,109.0,102.0,13.4,1505.3,327.5,-0.7,1.8,2470.659,13.33,0.005,291.8
2020-12-14T06:22:03,42.805,6.029,-0.006,-0.011,-0.008,105.0,109.0,102.0,13.3,1505.3,327.1,-0.7,1.8,2470.662,13.33,0.012,208.6
2020-12-14T06:25:03,42.805,6.029,0.004,-0.017,0.019,106.0,107.0,102.0,13.4,1505.3,325.2,-0.7,1.8,2470.612,13.33,0.017,166.8
2020-12-14T06:28:03,42.805,6.029,0.003,0.008,-0.008,107.0,108.0,102.0,13.4,1505.3,326.1,-0.7,1.9,2470.602,13.33,0.008,20.6
2020-12-14T06:31:03,42.805,6.029,0.001,-0.009,-0.015,105.0,109.0,102.0,13.3,1505.3,328.5,-0.7,1.8,2470.628,13.33,0.009,173.7
2020-12-14T06:34:03,42.805,6.029,-0.015,-0.017,-0.025,105.0,107.0,103.0,13.4,1505.3,327.5,-0.7,1.8,2470.61,13.33,0.022,221.4
2020-12-14T06:37:03,42.805,6.029,-0.008,-0.03,-0.02,105.0,107.0,102.0,13.4,1505.3,324.1,-0.7,1.8,2470.597,13.33,0.031,194.9
2020-12-14T06:40:03,42.805,6.029,-0.031,0.004,-0.018,105.0,108.0,100.0,13.4,1505.3,324.7,-0.7,1.8,2470.618,13.33,0.031,277.3
2020-12-14T06:43:03,42.805,6.029,-0.017,-0.016,-0.051,105.0,107.0,102.0,13.4,1505.3,326.3,-0.7,1.8,2470.669,13.33,0.023,226.7
2020-12-14T06:46:03,42.805,6.029,-0.019,-0.003,0.005,106.0,107.0,102.0,13.4,1505.3,325.9,-0.7,1.8,2470.622,13.33,0.019,261.0
2020-12-14T06:49:03,42.805,6.029,-0.004,-0.034,-0.007,106.0,108.0,102.0,13.4,1505.3,323.3,-0.7,1.8,2470.656,13.33,0.034,186.7
2020-12-14T06:52:03,42.805,6.029,-0.01,-0.016,-0.035,104.0,107.0,104.0,13.4,1505.3,323.7,-0.7,1.8,2470.608,13.33,0.018,212.0
2020-12-14T06:55:03,42.805,6.029,-0.016,-0.003,-0.016,105.0,108.0,102.0,13.4,1505.3,323.1,-0.7,1.8,2470.636,13.33,0.016,259.4
2020-12-14T06:58:03,42.805,6.029,-0.002,0.006,0.012,104.0,107.0,102.0,13.4,1505.3,323.0,-0.7,1.8,2470.622,13.33,0.006,341.6
2020-12-14T07:04:03,42.805,6.029,-0.015,-0.018,-0.009,104.0,108.0,102.0,13.3,1505.3,323.3,-0.8,1.8,2470.666,13.31,0.023,219.8
2020-12-14T07:07:03,42.805,6.029,0.0,-0.016,-0.044,105.0,109.0,102.0,13.4,1505.3,323.6,-0.7,1.8,2470.634,13.31,0.016,180.0
2020-12-14T07:10:03,42.805,6.029,0.005,-0.018,-0.001,105.0,107.0,103.0,13.3,1505.3,323.6,-0.7,1.8,2470.666,13.32,0.018,164.5
2020-12-14T07:13:03,42.805,6.029,-0.011,-0.015,0.006,105.0,108.0,102.0,13.4,1505.3,324.6,-0.7,1.8,2470.641,13.32,0.018,216.3
2020-12-14T07:16:03,42.805,6.029,-0.016,-0.032,-0.022,104.0,105.0,103.0,13.4,1505.3,324.6,-0.7,1.8,2470.635,13.32,0.035,206.6
2020-12-14T07:19:03,42.805,6.029,-0.009,-0.034,-0.039,105.0,106.0,101.0,13.4,1505.3,324.3,-0.7,1.8,2470.644,13.33,0.035,194.8
2020-12-14T07:22:03,42.805,6.029,0.0,-0.015,0.004,104.0,106.0,102.0,13.3,1505.3,326.1,-0.7,1.9,2470.634,13.33,0.015,180.0
2020-12-14T07:25:03,42.805,6.029,-0.01,0.0,-0.012,104.0,107.0,101.0,13.4,1505.3,327.5,-0.7,1.8,2470.616,13.33,0.01,270.0
2020-12-14T07:28:03,42.805,6.029,0.002,0.011,0.004,106.0,106.0,102.0,13.4,1505.3,328.2,-0.7,1.8,2470.645,13.33,0.011,10.3
2020-12-14T07:31:03,42.805,6.029,-0.012,-0.004,-0.019,106.0,105.0,102.0,13.4,1505.3,324.2,-0.7,1.9,2470.659,13.33,0.012,251.6
2020-12-14T07:34:03,42.805,6.029,-0.047,-0.032,-0.03,104.0,107.0,102.0,13.4,1505.3,323.1,-0.7,1.8,2470.653,13.33,0.056,235.8
2020-12-14T07:37:03,42.805,6.029,-0.002,-0.011,-0.032,104.0,106.0,101.0,13.4,1505.3,324.1,-0.7,1.8,2470.638,13.33,0.011,190.3
2020-12-14T07:40:03,42.805,6.029,-0.027,-0.01,-0.015,104.0,107.0,102.0,13.4,1505.3,328.3,-0.7,1.8,2470.617,13.33,0.028,249.7
2020-12-14T07:43:03,42.805,6.029,0.0,-0.014,-0.052,104.0,107.0,102.0,13.4,1505.3,323.0,-0.7,1.8,2470.649,13.33,0.014,180.0
2020-12-14T07:46:03,42.805,6.029,-0.021,-0.008,-0.013,106.0,107.0,102.0,13.4,1505.3,325.6,-0.7,1.8,2470.632,13.33,0.022,249.1
2020-12-14T07:49:03,42.805,6.029,-0.015,-0.003,-0.034,105.0,108.0,100.0,13.4,1505.3,323.7,-0.7,1.8,2470.65,13.33,0.015,258.7
2020-12-14T07:52:03,42.805,6.029,-0.061,-0.02,-0.029,105.0,108.0,102.0,13.4,1505.3,326.0,-0.7,1.8,2470.623,13.33,0.064,251.9
2020-12-14T07:55:03,42.805,6.029,-0.037,-0.019,-0.03,105.0,106.0,101.0,13.3,1505.3,324.2,-0.7,1.8,2470.604,13.33,0.041,242.8
2020-12-14T07:58:03,42.805,6.029,-0.013,-0.009,-0.036,105.0,106.0,101.0,13.4,1505.3,327.9,-0.7,1.8,2470.63,13.33,0.015,235.3
2020-12-14T08:04:03,42.805,6.029,-0.015,-0.016,-0.005,104.0,108.0,102.0,13.4,1505.3,322.8,-0.7,1.8,2470.647,13.31,0.021,223.1
2020-12-14T08:07:03,42.805,6.029,0.002,-0.036,-0.011,105.0,106.0,101.0,13.3,1505.3,325.9,-0.8,1.8,2470.67,13.32,0.036,176.8
2020-12-14T08:10:03,42.805,6.029,0.003,-0.019,-0.041,105.0,106.0,103.0,13.4,1505.3,325.3,-0.7,1.8,2470.665,13.32,0.019,171.0
2020-12-14T08:13:03,42.805,6.029,-0.047,0.009,-0.029,103.0,107.0,102.0,13.4,1505.3,326.6,-0.8,1.9,2470.629,13.33,0.047,280.8
2020-12-14T08:16:03,42.805,6.029,0.016,-0.009,0.016,105.0,104.0,101.0,13.4,1505.3,325.7,-0.7,1.8,2470.597,13.33,0.018,119.4
2020-12-14T08:19:03,42.805,6.029,0.016,0.004,-0.009,106.0,107.0,101.0,13.4,1505.3,325.9,-0.7,1.9,2470.605,13.33,0.016,76.0
2020-12-14T08:22:03,42.805,6.029,-0.021,-0.038,-0.025,105.0,107.0,102.0,13.3,1505.3,323.8,-0.7,1.8,2470.61,13.33,0.043,208.9
2020-12-14T08:25:03,42.805,6.029,-0.012,-0.012,-0.02,105.0,106.0,102.0,13.4,1505.3,325.6,-0.7,1.8,2470.623,13.33,0.016,225.0
2020-12-14T08:28:03,42.805,6.029,0.001,-0.018,-0.001,105.0,106.0,101.0,13.4,1505.3,323.6,-0.7,1.8,2470.644,13.33,0.018,176.8
2020-12-14T08:31:03,42.805,6.029,0.01,-0.035,-0.027,105.0,106.0,102.0,13.4,1505.3,325.0,-0.7,1.8,2470.626,13.33,0.036,164.1
2020-12-14T08:34:03,42.805,6.029,0.005,-0.017,-0.027,105.0,106.0,103.0,13.4,1505.3,323.5,-0.8,1.9,2470.595,13.33,0.017,163.6
2020-12-14T08:37:03,42.805,6.029,-0.012,-0.041,0.0,105.0,105.0,102.0,13.3,1505.3,327.8,-0.7,1.8,2470.626,13.33,0.042,196.3
2020-12-14T08:40:03,42.805,6.029,-0.019,-0.017,0.008,105.0,106.0,102.0,13.4,1505.3,326.4,-0.7,1.8,2470.577,13.33,0.025,228.2
2020-12-14T08:43:03,42.805,6.029,-0.003,-0.038,-0.018,103.0,107.0,102.0,13.4,1505.3,325.2,-0.7,1.8,2470.596,13.32,0.038,184.5
2020-12-14T08:46:03,42.805,6.029,0.003,-0.038,-0.028,105.0,106.0,102.0,13.3,1505.3,326.2,-0.7,1.8,2470.612,13.32,0.038,175.5
2020-12-14T08:49:03,42.805,6.029,-0.021,-0.027,-0.033,105.0,106.0,102.0,13.3,1505.3,324.2,-0.7,1.8,2470.634,13.32,0.034,217.9
2020-12-14T08:52:03,42.805,6.029,-0.006,-0.036,-0.031,105.0,106.0,103.0,13.4,1505.3,324.0,-0.7,1.8,2470.61,13.32,0.036,189.5
2020-12-14T08:55:03,42.805,6.029,-0.002,-0.014,-0.014,105.0,105.0,102.0,13.3,1505.3,326.6,-0.6,1.8,2470.614,13.32,0.014,188.1
2020-12-14T08:58:03,42.805,6.029,-0.039,-0.031,-0.019,105.0,106.0,101.0,13.4,1505.3,326.3,-0.7,1.8,2470.582,13.32,0.049,231.5
2020-12-14T09:04:03,42.805,6.029,-0.031,-0.012,-0.027,106.0,107.0,102.0,13.4,1505.2,326.2,-0.7,1.8,2470.614,13.3,0.033,248.8
2020-12-14T09:07:03,42.805,6.029,0.002,-0.024,-0.033,105.0,106.0,103.0,13.3,1505.3,322.6,-0.7,1.8,2470.626,13.31,0.024,175.2
2020-12-14T09:10:03,42.805,6.029,-0.018,-0.026,0.019,106.0,107.0,103.0,13.4,1505.3,324.4,-0.7,1.8,2470.594,13.31,0.031,214.7
2020-12-14T09:13:03,42.805,6.029,-0.002,-0.009,-0.005,105.0,105.0,103.0,13.3,1505.3,326.8,-0.7,1.8,2470.656,13.32,0.009,192.5
2020-12-14T09:16:03,42.805,6.029,0.009,-0.016,-0.037,105.0,106.0,101.0,13.4,1505.3,326.5,-0.7,1.8,2470.591,13.32,0.018,150.6
2020-12-14T09:19:03,42.805,6.029,0.009,-0.017,0.034,104.0,105.0,102.0,13.4,1505.3,327.5,-0.7,1.9,2470.615,13.32,0.019,152.1
2020-12-14T09:22:03,42.805,6.029,0.039,-0.042,0.016,106.0,105.0,102.0,13.3,1505.3,324.0,-0.7,1.8,2470.567,13.32,0.057,137.1
2020-12-14T09:25:03,42.805,6.029,0.004,-0.024,-0.023,105.0,106.0,104.0,13.4,1505.3,326.1,-0.7,1.8,2470.586,13.32,0.024,170.5
2020-12-14T09:28:03,42.805,6.029,-0.006,-0.028,-0.026,105.0,107.0,103.0,13.3,1505.3,323.7,-0.7,1.8,2470.561,13.32,0.028,192.1
2020-12-14T09:31:03,42.805,6.029,0.02,-0.048,-0.011,106.0,107.0,103.0,13.3,1505.3,325.6,-0.7,1.8,2470.583,13.32,0.052,157.4
2020-12-14T09:34:03,42.805,6.029,0.005,-0.044,-0.036,106.0,107.0,102.0,13.4,1505.3,326.6,-0.7,1.8,2470.591,13.32,0.044,173.5
2020-12-14T09:37:03,42.805,6.029,0.0,-0.022,0.01,106.0,106.0,103.0,13.3,1505.3,323.1,-0.7,1.8,2470.573,13.32,0.022,180.0
2020-12-14T09:40:03,42.805,6.029,-0.006,-0.046,-0.031,106.0,107.0,103.0,13.4,1505.3,324.5,-0.7,1.8,2470.61,13.32,0.046,187.4
2020-12-14T09:43:03,42.805,6.029,0.003,-0.048,-0.024,105.0,108.0,102.0,13.3,1505.3,325.0,-0.7,1.9,2470.593,13.32,0.048,176.4
2020-12-14T09:46:03,42.805,6.029,0.008,-0.029,0.0,105.0,107.0,103.0,13.3,1505.3,324.4,-0.7,1.8,2470.563,13.32,0.03,164.6
2020-12-14T09:49:03,42.805,6.029,-0.024,-0.05,-0.027,106.0,106.0,104.0,13.4,1505.3,327.9,-0.7,1.8,2470.601,13.32,0.055,205.6